World > North America > United States > New York > Mottville

Hourly Mottville, NY Regional Weather

Feedback E-mail the Weather

Quick WX

Mottville, NY Weather Maps

°F °C°F °C
Mottville Weather Map
UTC Time: 8/11/2022, 11:49
Your Time:

Mottville, NY Regional Weather

Expires:202208111200;;845023
ASUS41 KBGM 111110
RWRBGM

REGIONAL WEATHER ROUNDUP
NATIONAL WEATHER SERVICE BINGHAMTON NY
700 AM EDT THU AUG 11 2022

Note: "fair" indicates few or no clouds below 12,000 feet with no
significant weather and/or obstructions to visibility.

* = Station(s) that does not report precipitation, such as rain, 
snow, etc, also no thunder or fog.


NYZ009-015>018-022>025-036-037-044>046-055>057-062-111200
...Central New York...
  
CITY           SKY/WX    TMP DP  RH WIND       PRES   REMARKS
Binghamton     CLEAR     59  55  87 W3        30.00S                  
Cortland       FAIR      52  52 100 CALM      29.99S                  
Dansville      PTCLDY    59  55  87 SE8       30.00F                  
Elmira         PTCLDY    56  56 100 CALM      29.99S                  
Endicott       FOG       57  57 100 CALM      30.00  VSB 1/2          
Ithaca         CLEAR     56  56 100 CALM      30.00R                  
Hamilton       CLOUDY    54 N/A N/A CALM      29.99R VSB 1/4          
Hornell        PTCLDY    57  55  94 CALM      30.05S                  
Monticello     MOCLDY    58  57  97 CALM      30.00R                  
Norwich        FOG       55  55 100 S5        30.02S VSB 1/4          
Oneonta        CLEAR     55  55 100 CALM      30.00S                  
Penn Yan       CLEAR     66  59  78 SW9       29.98S                  
Rome           CLEAR     58  56  93 CALM      29.97S                  
Seneca Falls   SUNNY     61  61 100 S6        29.96S                  
Sidney         FOG       55  55 100 CALM      30.00S VSB 1/4          
Skaneateles      N/A     63  63 100 SW6       29.97S                  
Syracuse       PTCLDY    63  58  83 CALM      29.95S                  
$$
 

SKY/WX - Weather  TMP - Temperature  DP - Dew Point  RH - Humidity
WIND - Wind Direction/Speed PRES - Barometric Pressure VSB - Visibility
WCI - Wind Chill Index E13G22 Wind - East Wind 13 mph/Gusts of 22 mph

Trending Headlines

Mottville Radar Loop



Mottville Quick Facts


National Two Day Weather Forecast


E-mail the Mottville Weather Forecast

Voice your opinion or tell us about page issues...